Location: Newark
(39.1833°N, 3.3000°W)
Time: 14:19:14
(UTC+00:00)

Tiangong 2 - Pass Details

Date: 24 March 2019
Orbit: 378 x 390 km, 42.8° (Epoch: 25 April)

Event Time Altitude Azimuth Distance (km) Brightness Sun altitude
Exits shadow 04:23:16 22° 144° (SE) 889 3.0 -21.3°
Drops below altitude 10° 04:24:37 10° 133° (SE) 1,396 4.2 -21.0°
Sets 04:26:44 0° 127° (SE) 2,249 5.4 -20.6°
